Probability
0 0 0 0 0 0 0 0 0 0 0 0 0 0 0 0 0 0 0 0 0 0 0 0 0 0 0 0 0 0 0 0 0 1 1 1 0 1 1 1 0 0 0 0
0 0 0 0 0 0 0 0 0 0 0 0 0 0 0 0 0 0 0 0 0 0 0 0 0 0 0 0 0 0 0 0 0 1 1 1 0 0 1 2 1 0 0 0
0 0 0 0 0 0 0 0 0 0 0 0 0 0 0 0 0 0 0 0 0 0 0 0 0 0 0 0 0 0 0 0 0 1 1 1 0 0 1 2 2 1 0 0
0 0 0 0 0 0 0 0 0 0 0 0 0 0 0 0 0 0 0 0 0 0 0 0 0 0 0 0 0 0 0 0 0 0 0 0 0 0 0 1 2 2 1 1
0 0 0 0 0 0 0 0 0 0 0 0 0 0 0 0 0 0 0 0 0 0 0 0 0 0 0 0 0 0 0 0 0 0 0 0 0 0 0 0 1 2 3 3
0 0 0 0 0 0 0 0 0 0 0 0 0 0 0 0 0 0 0 0 0 0 0 0 0 0 0 0 0 0 0 0 0 0 0 0 0 0 0 0 0 1 3 3
0 0 0 0 0 0 0 0 0 0 0 0 0 0 0 0 0 0 0 0 0 0 0 0 0 0 0 0 0 0 0 0 0 0 0 0 0 0 0 0 0 0 1 1
0 0 0 0 0 0 0 0 0 0 0 0 0 0 0 0 0 0 0 0 0 0 0 0 0 0 0 0 0 0 0 0 0 0 0 0 0 0 0 0 0 0 0 0
0 0 0 0 0 0 0 0 0 0 0 0 0 0 0 0 0 0 0 0 0 0 0 0 0 0 0 0 0 0 0 0 0 0 0 0 0 0 0 0 0 0 0 0
0 0 0 0 0 0 0 0 0 0 0 0 0 0 0 0 0 0 0 0 0 0 0 0 0 0 0 0 0 0 0 0 0 0 0 0 0 0 0 0 0 0 0 0
0 0 0 0 0 0 0 0 0 0 0 0 0 0 0 0 0 0 0 0 0 0 0 0 0 0 0 0 0 0 0 0 0 0 0 0 0 0 0 0 0 0 0 0
0 0 0 0 0 0 0 0 0 0 0 0 0 0 0 0 0 0 0 0 0 0 0 0 0 0 0 0 0 0 0 0 0 0 0 0 0 0 0 0 0 0 0 0
0 0 0 0 0 0 0 0 0 0 0 0 0 0 0 0 0 0 0 0 0 0 0 0 0 0 0 0 0 0 0 0 0 0 0 0 0 0 0 0 0 0 0 0
0 0 0 0 0 0 0 0 0 0 0 0 0 0 0 0 0 0 0 0 0 0 0 0 0 0 0 0 0 0 0 0 0 0 0 0 0 0 0 0 0 0 0 0
0 0 0 0 0 0 0 0 0 0 0 0 0 0 0 0 0 0 0 0 0 0 0 0 0 0 0 0 0 0 0 0 0 0 0 0 0 0 0 0 0 0 0 0
0 0 0 0 0 0 0 0 0 0 0 0 0 0 0 0 0 0 0 0 0 0 0 0 0 0 0 0 0 0 0 0 0 0 0 0 0 0 0 0 0 0 0 0
0 0 0 0 0 0 0 0 0 0 0 0 0 0 0 0 0 0 0 0 0 0 0 0 0 0 0 0 0 0 0 0 0 0 0 0 0 0 0 0 0 0 0 0
0 0 0 0 0 0 0 0 0 0 0 0 0 0 0 0 0 0 0 0 0 0 0 0 0 0 0 0 0 0 0 0 0 0 0 0 0 0 0 0 0 0 0 0
0 0 0 0 0 0 0 0 0 0 0 0 0 0 0 0 0 0 0 0 0 0 0 0 0 0 0 0 0 0 0 0 0 0 0 0 0 0 0 0 0 0 0 0
0 0 0 0 0 0 0 0 0 0 0 0 0 0 0 0 0 0 0 0 0 0 0 0 0 0 0 0 0 0 0 0 0 0 0 0 0 0 0 0 0 0 0 0
0 0 0 0 0 0 0 0 0 0 0 0 0 0 0 0 0 0 0 0 0 0 0 0 0 0 0 0 0 0 0 0 0 0 0 0 0 0 0 0 0 0 0 0
0 0 0 0 0 0 0 0 0 0 0 0 0 0 0 0 0 0 0 0 0 0 0 0 0 0 0 0 0 0 0 0 0 0 0 0 0 0 0 0 0 0 0 0
0 0 0 0 0 0 0 0 0 0 0 0 0 0 0 0 0 0 0 0 0 0 0 0 0 0 0 0 0 0 0 0 0 0 0 0 0 0 0 0 0 0 0 0
0 0 0 0 0 0 0 0 0 0 0 0 0 0 0 0 0 0 0 0 0 0 0 0 0 0 0 0 0 0 0 0 0 0 0 0 0 0 0 0 0 0 0 0
0 0 0 0 0 0 0 0 0 0 0 0 0 0 0 0 0 0 0 0 0 0 0 0 0 0 0 0 0 0 0 0 0 0 0 0 0 0 0 0 0 0 0 0
0 0 0 0 0 0 0 0 0 0 0 0 0 0 0 0 0 0 0 0 0 0 0 0 0 0 0 0 0 0 0 0 0 0 0 0 0 0 0 0 0 0 0 0
Wind_Speed
3 5 9 11 12 12 9 10 12 9 4 6 12 15 12 9 8 9 9 8 8 7 6 5 5 5 6 7 8 10 10 10 9 7 7 7 7 7 7 7 8 9 9 9
4 8 8 6 7 8 10 11 11 7 4 6 10 14 12 11 10 10 10 9 9 8 6 5 4 4 4 5 6 8 9 9 9 8 7 6 6 5 6 6 7 9 10 10
7 4 5 6 7 8 10 12 10 7 5 6 8 13 12 9 9 8 8 9 8 7 6 5 4 4 4 4 4 4 6 7 8 9 6 4 4 3 4 6 6 8 9 9
5 5 6 7 8 8 9 7 7 6 6 5 6 9 9 7 7 7 7 6 6 5 4 4 3 3 3 3 3 3 4 4 6 7 7 9 7 7 7 6 6 6 8 8
4 4 6 7 7 7 5 4 6 6 6 7 7 9 7 4 8 6 4 3 3 3 3 3 4 4 4 4 3 3 2 2 3 4 7 8 7 6 5 5 5 5 6 7
4 4 4 5 4 6 3 2 3 4 5 9 10 10 7 4 5 3 0 2 3 3 3 3 4 5 5 5 4 3 3 2 2 1 3 4 5 5 5 4 4 4 4 4
2 3 2 2 3 4 4 4 3 4 6 7 5 8 5 1 1 1 0 2 3 4 4 5 6 6 6 7 6 5 4 4 3 2 1 2 3 4 5 4 4 3 3 3
2 2 2 2 4 5 7 7 5 5 5 4 4 8 3 1 1 2 2 2 3 4 4 5 5 5 6 6 6 6 6 5 4 3 2 2 2 2 2 3 3 3 3 3
2 3 2 2 3 4 4 5 5 3 2 4 4 3 4 1 0 1 2 4 5 5 5 5 5 5 6 6 6 5 5 5 5 4 4 3 3 2 2 2 2 2 2 2
2 3 3 3 1 1 3 3 3 3 3 5 5 6 4 2 1 1 2 4 5 5 5 5 5 5 5 5 5 5 5 5 5 4 3 3 3 3 3 2 2 2 3 3
2 2 2 1 1 3 2 3 3 3 3 4 5 4 1 3 1 1 3 4 4 5 5 5 5 5 5 5 5 5 5 5 5 5 4 4 4 3 3 3 3 3 3 3
2 2 2 2 3 4 3 4 4 4 4 5 5 5 1 1 2 4 5 6 6 5 5 5 5 5 5 5 5 5 5 5 5 5 4 4 4 4 3 3 4 3 3 3
1 1 1 1 1 0 1 3 4 3 3 5 7 5 1 2 4 4 5 6 6 6 6 6 5 5 5 6 5 5 5 5 5 5 4 4 4 4 4 4 4 4 3 3
1 1 3 5 4 3 5 6 6 5 5 7 10 9 9 7 6 6 6 5 6 5 5 6 6 6 6 6 6 5 5 5 5 5 4 4 4 4 4 4 4 4 4 3
1 2 3 5 6 6 8 10 10 11 11 10 10 11 11 8 7 6 6 6 6 6 6 6 6 6 6 6 6 6 6 5 5 4 4 4 5 5 4 4 4 4 4 4
1 2 3 5 5 6 9 11 11 12 12 12 12 12 8 6 5 5 5 5 5 6 6 6 6 6 6 6 7 7 6 5 5 4 4 5 5 5 4 5 5 4 4 4
2 1 2 5 6 5 8 9 9 8 8 10 12 10 6 5 5 5 4 4 5 6 6 6 6 5 6 6 6 7 6 6 5 4 5 5 5 5 5 5 5 5 4 4
3 2 2 2 1 7 5 2 6 8 9 9 8 7 6 5 5 4 3 4 5 5 6 5 5 5 5 5 6 6 6 5 5 4 5 5 5 5 5 5 5 5 5 4
5 4 2 2 5 9 9 5 5 6 8 6 7 7 5 4 5 4 3 4 5 5 5 5 5 5 5 5 5 5 5 5 5 5 6 6 5 5 5 5 6 5 5 5
3 4 3 4 5 8 5 2 2 3 7 3 3 5 5 4 6 5 4 5 5 5 4 5 5 5 4 5 5 5 5 5 5 6 6 6 6 6 6 6 6 5 5 5
3 4 6 7 7 9 6 2 1 4 4 1 3 5 5 6 6 6 5 5 4 5 5 5 5 4 5 5 4 5 5 6 6 6 6 6 6 6 6 6 5 5 5 5
5 5 6 5 7 9 2 3 4 5 4 4 5 6 6 7 6 6 6 6 6 5 5 5 5 5 5 4 4 5 6 6 6 6 6 6 6 5 5 5 5 5 4 5
7 7 5 8 8 4 2 5 4 4 5 6 6 7 7 7 8 8 8 7 6 6 6 4 5 5 4 4 4 5 6 5 5 6 6 6 6 5 5 5 5 4 4 4
6 4 6 8 10 9 8 7 6 6 6 6 6 7 6 8 9 9 8 7 7 6 5 4 4 5 5 4 4 5 6 5 5 6 6 5 5 5 5 4 4 4 4 4
7 5 6 10 10 9 9 8 8 7 7 7 7 7 8 8 9 9 8 7 6 5 4 3 4 5 6 5 5 5 5 5 5 6 6 5 5 5 5 5 5 5 5 6
8 9 9 11 8 7 8 5 5 6 7 7 7 8 7 7 8 8 7 6 5 5 4 4 4 5 6 5 5 5 5 5 5 5 5 4 4 4 4 5 5 7 7 9
Wind_Direction
185 204 212 214 222 241 239 240 241 242 243 245 244 253 256 257 255 254 251 250 252 253 260 261 258 249 239 232 228 225 221 217 210 205 205 208 214 216 219 221 221 220 218 215
192 223 235 232 228 233 234 240 247 257 260 253 261 263 261 252 249 255 256 255 254 260 266 267 269 257 244 240 235 233 228 221 213 211 208 211 211 215 221 220 222 222 218 216
213 227 220 224 224 230 234 231 238 251 275 249 270 262 246 241 238 246 251 254 257 260 265 274 280 276 266 259 254 247 242 232 221 216 209 204 209 216 218 222 222 221 219 217
232 239 221 219 227 224 236 229 238 246 252 243 234 262 244 241 238 238 246 256 265 273 280 291 307 314 309 298 285 264 255 245 232 217 211 210 213 219 223 223 221 219 217 220
226 226 213 219 229 224 236 230 240 243 250 259 231 250 261 235 236 239 245 270 294 303 318 338 352 355 356 349 342 327 306 280 260 232 220 220 226 232 234 229 228 226 222 222
254 265 248 243 244 220 205 209 243 231 233 246 228 232 260 236 240 245 278 0 353 351 359 5 11 16 15 14 8 357 353 346 330 281 238 227 230 232 234 237 235 232 228 225
277 263 269 248 206 202 199 192 198 208 212 236 212 224 253 294 275 258 23 30 22 18 16 11 12 15 16 17 16 14 16 9 1 348 310 261 248 241 237 240 238 234 234 233
250 255 230 225 214 211 214 215 217 224 224 231 212 228 238 360 23 43 46 44 34 24 19 16 9 8 10 14 17 17 18 11 8 6 351 323 300 265 258 254 254 250 252 249
268 274 301 260 242 205 203 219 245 255 270 252 231 237 249 265 292 65 48 27 16 10 8 7 5 6 8 12 15 14 12 13 13 12 6 355 345 328 308 296 279 270 276 279
297 281 310 311 248 230 229 207 206 214 221 237 244 244 238 206 186 66 42 17 2 358 358 359 1 6 6 4 5 13 14 15 16 17 14 2 351 343 340 337 320 319 309 299
307 281 317 322 219 233 205 206 221 208 245 247 252 254 319 235 268 339 2 360 353 351 349 353 360 3 5 10 11 11 7 8 9 8 8 9 7 6 4 358 344 333 324 319
334 298 291 298 299 289 263 229 218 225 237 249 258 261 14 270 2 360 353 352 354 353 355 1 8 9 6 5 4 2 1 358 356 359 2 8 9 8 7 2 351 342 332 326
320 247 288 291 182 124 250 245 242 242 242 241 244 250 251 320 340 354 350 347 354 1 1 3 6 5 0 357 355 354 354 352 351 355 358 4 6 3 359 354 346 343 336 325
315 223 232 249 282 284 270 266 255 240 238 245 244 257 276 298 318 328 334 337 345 356 357 357 356 354 352 349 347 346 347 349 348 348 351 354 353 348 345 345 343 340 335 326
303 246 252 275 289 278 273 271 261 247 244 247 255 262 276 293 297 309 320 325 333 343 348 347 344 342 343 344 344 343 342 345 343 340 345 346 345 344 343 343 341 337 335 331
327 250 265 278 284 287 279 272 262 255 252 249 259 267 281 287 296 307 315 319 328 333 333 334 335 335 335 336 336 336 335 337 335 334 336 340 341 339 336 335 331 330 330 329
260 222 267 278 305 296 269 257 246 242 244 246 254 264 280 296 302 304 309 319 322 322 326 325 323 325 327 329 330 327 325 326 328 329 331 331 331 327 327 325 323 321 320 321
229 209 236 279 299 249 254 278 248 250 258 249 252 263 263 269 292 303 304 313 318 317 315 319 321 322 326 326 326 324 322 320 320 323 324 325 323 321 321 318 313 313 312 305
226 204 215 230 253 271 281 271 248 245 265 256 250 262 275 291 299 285 298 315 308 307 311 316 320 315 314 319 324 322 320 321 322 323 322 321 316 311 310 307 307 309 305 300
196 202 215 222 242 254 270 307 299 263 266 259 260 270 277 286 283 290 320 307 302 306 311 314 321 319 316 322 325 316 317 318 317 317 315 312 307 301 299 299 300 301 298 294
179 205 219 231 247 264 276 288 211 229 276 323 278 282 269 264 281 302 303 301 304 306 309 310 310 309 312 320 318 309 309 310 317 316 309 306 304 302 298 298 296 296 295 292
205 207 211 213 233 252 219 176 221 266 308 295 293 289 281 280 288 294 294 297 303 305 306 306 302 302 308 319 315 305 304 316 319 313 306 304 306 304 299 297 296 294 290 286
222 220 218 216 236 273 211 230 269 285 281 287 288 288 282 280 284 288 290 291 292 293 295 298 296 297 305 318 313 299 309 318 313 306 301 302 304 300 297 292 292 293 288 282
239 235 240 254 258 263 265 267 276 274 274 280 282 281 276 275 282 285 285 286 288 290 288 293 291 288 295 308 307 298 307 311 302 294 296 298 297 296 297 291 282 279 277 278
240 212 232 253 267 279 267 259 265 271 277 281 284 282 276 275 279 280 282 282 283 284 287 286 280 283 290 301 301 304 308 308 295 290 290 292 291 291 291 287 282 280 276 272
217 217 226 248 251 251 267 267 262 263 271 275 278 281 279 273 276 281 279 282 284 286 290 285 279 281 289 296 297 305 309 300 290 285 286 287 286 287 286 288 292 286 286 289